Location: Taipo
(41.0000°S, 175.9500°E)
Time: 03:08:56
(UTC+00:00)

Meteor 2-20 - Visible Passes

Search period start: 25 July 2024 00:00
Search period end: 04 August 2024 00:00
Orbit: 938 x 958 km, 82.5° (Epoch: 24 July)

Date Brightness Start Highest point End Pass type
(mag) Time Alt. Az. Time Alt. Az. Time Alt. Az.
25 Jul 4.4 06:04:59 10° N 06:11:02 71° E 06:17:12 10° SSE visible
25 Jul 7.0 07:52:36 10° WNW 07:56:32 17° WSW 08:00:30 10° SSW visible
25 Jul 5.0 16:57:27 10° S 17:03:37 57° E 17:09:41 10° NNE visible
25 Jul 5.6 18:43:27 10° SW 18:47:55 21° W 18:52:21 10° NW visible
26 Jul 4.7 06:22:11 10° NNW 06:28:17 75° W 06:34:29 10° S visible
26 Jul 7.4 08:12:55 10° WSW 08:14:16 11° WSW 08:15:36 10° SW visible
26 Jul 7.1 15:32:15 10° SE 15:35:08 13° ESE 15:38:00 10° E visible
26 Jul 4.4 17:14:38 10° S 17:20:55 88° E 17:27:07 10° N visible
27 Jul 5.5 06:39:45 10° NNW 06:45:37 48° WSW 06:51:35 10° S visible
27 Jul 6.6 15:48:13 10° SSE 15:52:48 21° ESE 15:57:22 10° ENE visible
27 Jul 4.4 17:32:00 10° SSW 17:38:06 60° W 17:44:10 10° N visible
28 Jul 6.3 06:57:44 10° NW 07:03:04 31° WSW 07:08:28 10° SSW visible
28 Jul 6.0 16:04:49 10° S 16:10:21 32° ESE 16:15:50 10° NE visible
28 Jul 4.9 17:49:33 10° SSW 17:55:13 38° W 18:00:50 10° NNW visible
29 Jul 6.9 07:16:15 10° WNW 07:20:37 20° WSW 07:25:03 10° SSW visible
29 Jul 5.2 16:21:45 10° S 16:27:48 50° ESE 16:33:46 10° NNE visible
29 Jul 5.4 18:07:24 10° SSW 18:12:14 24° W 18:17:02 10° NW visible
30 Jul 4.6 05:46:21 10° N 05:52:28 85° W 05:58:42 10° S visible
30 Jul 7.2 07:35:46 10° W 07:38:18 13° WSW 07:40:52 10° SW visible
30 Jul 7.2 14:58:03 11° SE 14:59:12 11° ESE 15:01:08 10° E visible
30 Jul 4.5 16:42:22 36° S 16:45:07 78° E 16:51:19 10° NNE visible
30 Jul 5.9 18:26:40 12° SW 18:29:08 15° W 18:32:27 10° WNW visible
31 Jul 5.3 06:03:49 10° NNW 06:09:47 55° WSW 06:15:52 10° S visible
31 Jul 6.8 15:17:55 18° E 15:17:55 18° E 15:21:04 10° ENE visible
31 Jul 4.3 17:02:10 68° W 17:02:22 69° W 17:08:29 10° N visible
01 Aug 6.1 06:21:40 10° NW 06:27:12 35° WSW 06:32:50 10° S visible
01 Aug 6.5 15:37:12 21° ENE 15:37:12 21° ENE 15:39:45 10° NE visible
01 Aug 5.2 17:21:25 34° NW 17:21:25 34° NW 17:25:17 10° NNW visible
02 Aug 6.8 06:40:00 10° WNW 06:44:43 23° WSW 06:49:31 10° SSW visible
02 Aug 6.5 15:56:13 18° NE 15:56:13 18° NE 15:57:50 10° NNE visible
02 Aug 6.1 17:40:25 15° NW 17:40:25 15° NW 17:41:38 10° NW visible
03 Aug 7.1 06:59:05 10° W 07:02:22 15° WSW 07:05:40 10° SSW visible
03 Aug 6.7 16:15:02 12° NNE 16:15:02 12° NNE 16:15:29 10° NNE visible
